438  
ASUS44 KJAN 301410  
RWRMS  
 
MISSISSIPPI HOURLY WEATHER ROUNDUP  
NATIONAL WEATHER SERVICE JACKSON MS  
900 AM CDT SUN APR 30 2017  
 
NOTE: "FAIR: INDICATES FEW OR NO CLOUDS BELOW 12,000 FEET WITH NO  
SIGNIFICANT WEATHER AND/OR S TO VISIBILITY
.  
 
MSZ001>002-007>008-010>013-018>021-025>028-034>036-301500-  
NORTHWEST MISSISSIPPI  
 
CITY SKY/WX TMP DP RH WIND PRES REMARKS
 
CLARKSDALE CLOUDY 73 73 100 S14 29.78S FOG  
CLEVELAND RAIN 72 72 100 SE24G35 29.71F  
GREENWOOD TSTM 73 71 93 SE3 29.80F  
GREENVILLE LGT RAIN 73 69 87 SE17G33 29.72F  
OLIVE BRANCH TSTM N/A N/A N/A S14G25 29.78R FOG  
OXFORD LGT RAIN 70 68 94 SE8 29.85R  
TUNICA LGT RAIN 70 70 100 S25G31 29.77F  
WINONA LGT RAIN 72 71 98 SE3 29.83R  

 
 
MSZ003>006-009-014>017-022>024-029>033-037>039-301500-  
NORTHEAST MISSISSIPPI  
 
CITY SKY/WX TMP DP RH WIND PRES REMARKS
 
COLUMBUS AFB NOT AVBL  
CORINTH PTSUNNY 75 66 73 SE18G30 29.85F  
GOLDN TRIANGLE PTSUNNY 73 63 68 S16G23 29.84F  
STARKVILLE PTSUNNY 72 68 88 S12 29.89R  
TUPELO CLOUDY 74 65 73 SE15G22 29.87S  

 
 
MSZ040-058-301500-  
CENTRAL MISSISSIPPI  
 
CITY SKY/WX TMP DP RH WIND PRES REMARKS
 
JACKSON INTL TSTM 74 71 91 S22G35 29.83R FOG  
JACKSON HAWKNS TSTM 73 70 90 S14G25 29.83R FOG  
MADISON CLOUDY 72 70 94 S16G28 29.80S THUNDER  
MERIDIAN KEY CLOUDY 75 69 81 S13G21 29.89R  
MERIDIAN NAS CLOUDY 75 66 73 S13G24 29.90S  
RAYMOND N/A N/A N/A N/A MISG N/A  
VICKSBURG VKS CLOUDY 68 68 100 S10G20 29.75R FOG  

 
 
MSZ059>079-301500-  
SOUTH MISSISSIPPI  
 
CITY SKY/WX TMP DP RH WIND PRES REMARKS
 
HATTIESBURG LGT RAIN 78 71 79 S12G23 29.89R  
LAUREL CLOUDY 74 74 100 SE9G16 29.89R  
MCCOMB CLOUDY 75 72 90 VRB3 29.87R  
NATCHEZ RAIN 70 68 94 S7 29.81S FOG  
PINE BELT CLOUDY 77 70 78 S15G24 29.90R  

 
 
MSZ080>082-301500-  
COASTAL MISSISSIPPI  
 
CITY SKY/WX TMP DP RH WIND PRES REMARKS
 
BAY ST LOUIS CLOUDY 77 72 83 MISG 29.87F  
BILOXI CLOUDY 78 74 86 S14G22 29.90R  
PASCAGOULA CLOUDY 78 72 81 SE17G26 29.92R  
GULFPORT CLOUDY 79 74 84 SE17G30 29.89R  

 
 
LAZ007>009-015>016-023>026-301500-  
NORTHEAST LOUISIANA  
 
CITY SKY/WX TMP DP RH WIND PRES REMARKS
 
BASTROP CLOUDY 63 63 98 NW6 29.74F  
TALLULAH/VBURG RAIN 68 67 96 S7 29.77R  
VIDALIA TSTM N/A N/A N/A NW6 29.77F  

 
 
 
CLICK HERE TO GO TO PREVIOUS BULLETINS.

The Nexlab MS Page Main Text Page